Theta_e
331 341 351 354 353 354 355 354 354 353 352 351 351 351 351 351 351 351 349 347 346 345 344 343 342 341 339 339 338 340 342 345 348 350 350 349 350 350 350 350 349 347 350
335 344 349 353 354 355 355 355 354 353 352 350 350 350 350 349 350 350 349 347 345 342 342 340 340 339 336 336 336 337 340 343 344 346 346 347 348 348 349 349 349 348 349
338 345 348 351 353 354 354 354 353 352 351 350 350 349 349 348 347 347 347 347 344 341 340 338 337 334 332 333 334 335 336 338 339 339 342 338 340 346 347 346 347 348 349
339 344 346 347 352 354 354 353 352 352 352 350 349 349 347 345 344 344 345 345 343 340 337 334 333 329 329 330 332 332 333 335 334 334 331 340 341 346 345 343 343 343 344
338 343 345 346 352 353 353 352 351 351 351 351 350 348 345 342 341 341 339 341 340 336 333 331 328 326 324 325 327 329 331 332 333 337 332 337 337 342 342 340 339 340 341
337 342 343 347 351 352 351 351 351 351 351 351 351 348 342 341 339 336 335 338 338 333 331 327 325 323 321 321 323 326 329 331 334 330 333 338 336 342 340 338 337 338 339
333 337 342 346 349 350 350 350 350 350 351 351 349 347 344 341 336 333 335 338 335 333 328 326 323 322 320 319 320 323 325 326 326 326 328 332 335 341 338 337 334 334 336
332 335 341 340 343 346 348 348 348 349 350 350 348 347 344 340 337 332 333 334 333 331 326 325 322 320 318 318 319 320 320 324 323 322 322 325 336 337 334 333 332 332 333
328 334 338 341 340 339 342 343 345 347 348 347 347 345 343 340 338 333 332 332 331 328 327 324 321 318 317 315 315 315 319 321 316 318 320 321 334 333 333 331 330 329 329
322 331 334 337 339 341 341 337 339 341 343 343 343 339 336 334 333 332 329 331 329 326 326 323 321 318 315 312 310 310 313 312 310 312 314 319 331 331 331 329 327 327 329
319 324 329 334 337 339 337 336 334 336 337 337 335 332 328 328 327 325 324 327 328 327 326 323 321 317 312 308 305 308 304 298 305 307 310 322 327 327 326 326 326 327 328
315 320 325 329 333 334 339 336 335 337 337 333 333 329 327 326 323 323 319 324 327 327 327 323 320 316 305 294 292 300 294 295 299 302 306 318 321 323 324 325 325 326 324
312 317 323 327 328 331 335 334 335 331 329 328 328 325 326 324 320 318 315 316 315 318 315 316 312 304 300 296 292 294 293 293 293 298 305 314 316 320 321 322 324 325 324
309 315 320 325 327 328 330 330 332 334 331 327 324 323 323 321 317 314 313 312 311 310 308 306 303 302 296 295 295 293 293 292 292 295 296 311 313 318 320 323 324 324 324
304 310 315 322 325 327 326 325 328 329 329 327 323 321 323 321 317 312 311 310 309 307 305 303 301 298 294 294 293 293 292 292 292 293 293 304 311 316 320 326 325 325 325
300 302 311 320 324 324 324 323 326 325 324 324 323 324 324 323 319 314 309 309 307 306 304 303 300 296 293 293 293 293 292 292 291 292 295 296 310 314 320 325 325 325 326
299 302 308 316 319 321 321 321 321 323 323 322 321 321 323 322 317 311 308 307 307 306 304 301 298 294 292 292 291 292 292 291 291 291 294 297 301 313 317 324 325 325 326
297 299 304 314 316 317 318 319 320 319 321 323 322 321 322 320 317 311 308 307 308 305 303 299 295 293 292 290 290 290 290 290 291 291 292 295 300 305 310 318 324 326 326
296 297 298 300 303 312 315 316 316 315 316 319 320 320 320 318 315 310 308 307 305 304 300 297 293 293 291 290 290 289 289 288 289 292 291 293 296 303 301 308 316 322 324
294 295 296 298 299 302 308 310 311 311 312 315 316 317 318 319 316 313 311 309 306 303 297 294 293 290 290 290 291 290 287 288 288 289 290 292 294 301 300 300 302 310 318
292 293 294 294 295 298 298 301 304 305 306 303 304 306 311 313 314 311 308 306 304 302 299 295 292 291 289 288 287 286 286 287 287 288 289 290 292 299 297 297 297 301 310
290 291 292 293 293 294 296 296 298 298 298 297 298 298 300 304 307 309 307 304 301 300 297 295 293 289 289 288 286 284 283 285 286 288 287 289 290 295 296 295 294 295 296
288 289 290 291 292 292 294 294 295 294 294 294 294 294 295 298 301 302 302 302 300 298 297 295 293 292 291 288 287 287 281 281 282 284 286 286 289 291 292 293 293 293 292
287 288 289 290 291 291 292 291 290 289 289 289 291 291 293 294 294 295 297 298 297 295 295 294 294 293 291 290 288 288 285 285 283 283 283 284 286 290 291 290 291 291 291
287 286 286 288 289 290 290 290 289 288 289 288 289 288 289 291 291 291 292 292 293 295 293 292 293 291 290 292 289 287 286 285 284 283 285 283 283 286 290 292 291 290 290
286 286 286 286 286 287 288 288 287 286 286 285 285 285 286 287 288 288 289 289 290 291 291 291 290 289 289 289 288 287 287 288 284 285 284 285 283 284 287 290 289 290 290
Wind_Speed
5 9 16 16 16 15 14 14 14 13 13 13 13 12 12 12 10 12 12 11 11 10 9 9 9 9 10 10 9 9 9 9 6 10 12 12 14 14 12 10 8 5 10
10 11 16 16 15 15 14 13 13 13 13 13 12 11 12 12 10 11 12 12 11 10 8 7 7 8 9 8 8 7 8 8 9 9 8 10 12 14 13 12 10 10 9
12 11 13 16 15 14 16 15 13 12 13 13 12 12 12 12 9 8 10 12 10 8 7 6 6 7 7 7 7 6 7 7 5 3 3 4 6 12 13 13 13 11 12
11 11 11 13 16 15 16 16 15 14 13 13 12 11 12 10 7 6 7 10 9 7 5 4 5 6 6 5 5 6 6 7 6 5 2 2 6 13 14 10 11 12 14
10 11 10 12 15 15 17 16 15 14 14 14 15 13 11 10 6 6 3 4 7 5 3 3 4 4 4 4 3 5 6 7 5 4 5 3 3 11 14 10 10 11 11
8 10 12 15 15 15 15 15 15 14 13 14 16 13 12 9 7 4 1 2 6 3 2 2 3 4 4 3 3 5 7 8 7 6 5 6 5 12 12 10 8 9 7
7 7 11 15 15 16 15 14 14 13 13 13 11 14 14 12 8 4 5 6 5 4 3 3 3 3 3 3 3 4 7 7 5 6 5 5 4 12 11 10 6 7 7
9 7 10 12 12 13 14 14 14 12 12 11 12 13 15 13 8 6 5 4 4 5 4 3 3 3 2 3 4 5 7 7 5 6 5 3 3 3 8 5 4 5 6
6 7 6 9 11 11 11 11 12 12 11 12 13 14 14 12 11 9 6 5 6 6 6 5 4 3 2 3 4 6 9 8 5 4 4 3 6 5 7 4 3 3 3
6 6 7 8 8 8 9 12 11 11 11 11 11 12 11 11 12 9 4 7 7 7 7 6 4 2 2 3 4 6 7 9 5 5 3 2 4 5 4 3 2 2 4
4 7 6 9 9 10 7 8 11 13 11 11 11 13 9 5 7 9 6 6 7 7 8 7 5 4 2 1 3 5 6 3 3 2 2 3 2 4 3 4 4 4 5
7 7 8 7 9 7 7 6 7 6 6 5 6 7 4 5 5 6 7 8 8 7 8 8 7 5 3 2 2 4 2 3 2 2 1 2 2 3 4 5 5 6 4
7 4 9 9 8 9 8 5 4 3 3 3 6 5 5 4 4 4 3 2 2 5 3 4 2 2 2 1 1 0 1 2 1 0 1 0 2 5 5 6 6 6 6
8 11 9 10 10 9 5 6 5 6 5 4 5 7 5 3 4 4 4 4 3 2 4 3 2 2 3 3 3 2 2 2 2 1 3 4 3 5 7 7 7 7 8
9 9 9 9 11 9 8 5 5 5 6 5 6 6 6 6 5 4 4 4 4 4 4 3 3 2 3 3 3 3 3 4 4 3 2 6 7 7 10 11 11 10 10
13 8 6 8 8 7 7 7 5 4 4 4 4 6 8 6 4 4 4 4 4 4 4 4 4 4 4 3 4 4 4 4 4 4 3 4 9 10 11 13 13 12 13
10 11 4 5 5 7 6 5 4 4 4 4 4 6 6 6 7 6 4 4 4 4 5 3 2 1 2 2 4 3 3 4 4 4 4 4 5 8 11 14 14 15 15
13 15 14 9 5 4 4 4 3 3 3 3 3 3 5 5 6 5 5 5 5 4 4 4 3 2 3 3 3 4 4 4 5 5 4 4 4 3 5 8 10 15 16
14 15 16 15 12 8 7 5 4 5 3 2 2 3 4 5 5 5 4 4 5 4 3 3 2 3 3 3 4 4 4 4 5 4 6 6 5 5 4 8 9 11 13
14 15 16 14 16 9 6 5 5 5 5 6 5 4 2 1 4 4 3 3 3 3 3 2 3 2 2 3 2 4 4 5 5 5 6 5 5 6 5 6 5 5 13
17 18 17 18 15 11 6 4 5 4 5 8 8 10 7 5 2 3 2 3 4 5 5 4 2 5 3 2 2 3 4 6 6 6 5 5 6 6 6 5 4 3 6
15 15 16 16 15 11 8 4 4 3 4 4 7 10 13 9 6 2 1 2 2 2 3 4 3 1 2 4 4 1 5 5 4 6 5 5 7 4 6 6 6 5 4
15 14 15 14 16 14 12 8 6 5 5 8 11 9 10 12 11 9 7 4 2 0 3 3 4 5 4 3 4 4 2 5 4 2 5 4 5 4 5 6 6 6 6
10 10 13 14 15 14 14 12 14 9 7 4 5 5 8 12 12 12 11 8 6 3 3 3 3 4 2 5 1 6 3 3 2 6 2 3 4 6 6 5 6 7 7
8 8 8 11 13 12 13 12 9 9 5 4 6 10 12 11 11 13 11 9 9 6 5 5 4 4 4 5 4 3 4 4 2 3 10 4 2 5 6 9 8 7 9
7 7 8 11 12 10 11 11 11 11 8 8 8 8 6 5 7 11 11 9 7 7 6 5 5 5 5 5 4 4 6 6 4 6 8 9 7 5 7 7 8 9 8
Wind_Direction
214 175 171 171 164 165 162 156 149 144 143 138 133 125 119 115 119 114 108 105 94 82 81 78 77 74 68 64 57 55 62 63 54 96 91 80 70 71 68 73 74 60 67
149 173 169 170 166 160 156 149 147 144 143 142 138 133 136 126 140 140 134 118 103 93 79 74 79 80 74 71 61 56 59 67 63 68 82 84 79 69 56 52 69 77 80
148 165 168 169 166 160 153 150 149 150 150 148 145 144 131 99 86 88 112 111 109 102 92 77 83 74 71 71 72 59 54 56 58 72 59 106 98 84 64 56 47 52 67
152 162 171 169 165 161 156 156 157 158 160 160 162 159 128 124 114 98 95 122 125 105 80 85 79 74 72 61 72 61 51 49 358 326 235 145 110 98 76 54 47 43 34
153 162 167 167 170 165 159 160 163 165 168 168 166 164 131 139 163 129 103 131 123 116 130 96 82 74 64 64 46 56 55 35 24 42 134 129 102 99 91 70 50 47 41
155 165 165 168 172 171 168 167 168 172 178 177 177 155 158 161 159 153 320 268 121 140 161 110 76 73 56 52 36 39 52 56 73 59 76 84 89 100 98 84 55 55 55
161 166 168 171 173 171 171 173 173 178 186 183 183 146 157 166 164 192 226 208 190 183 179 125 101 79 74 66 47 52 50 54 87 72 57 73 99 113 106 86 67 64 62
161 169 172 174 173 172 174 175 177 181 191 189 166 153 157 169 171 174 187 187 181 185 182 147 135 119 96 74 53 54 43 69 76 81 65 37 43 150 92 92 75 68 67
167 158 170 180 180 175 177 176 178 179 179 174 169 165 168 165 139 158 192 188 187 193 176 168 157 148 115 68 62 59 55 77 90 87 71 18 49 79 95 112 94 80 79
174 176 172 176 183 185 182 182 184 186 185 183 177 168 166 167 141 151 183 195 199 201 179 173 173 160 107 59 46 45 57 69 79 77 64 20 82 105 118 132 110 107 108
210 193 184 180 184 185 179 190 188 188 191 190 172 173 164 153 143 149 156 206 205 212 186 184 184 172 119 16 33 40 67 69 86 76 46 21 132 134 179 180 168 152 119
219 210 191 185 184 178 189 183 192 190 187 179 169 170 152 158 155 157 158 203 205 204 182 192 197 161 89 39 354 27 61 76 77 87 354 33 197 185 202 191 178 165 141
217 199 197 191 182 177 192 184 187 170 154 162 171 168 154 157 157 149 155 206 205 181 163 178 182 119 190 229 248 13 101 89 102 77 325 332 277 214 203 200 183 168 163
212 218 200 189 180 188 175 181 188 191 179 181 177 173 155 158 173 166 167 179 182 176 171 156 163 194 246 276 239 223 188 161 177 200 241 215 231 242 214 203 193 192 180
253 250 213 184 186 182 175 166 172 190 192 181 173 177 171 173 177 161 177 167 174 167 171 182 192 220 257 268 251 222 208 194 188 198 219 237 227 234 223 200 200 197 192
338 281 220 211 196 167 174 167 172 161 174 171 173 182 186 173 163 170 170 177 176 181 178 180 190 210 235 233 252 245 233 230 224 215 217 243 227 230 234 224 205 203 186
353 349 310 189 169 166 165 152 153 169 151 165 177 178 188 173 170 168 172 176 186 185 181 165 189 188 258 273 263 262 260 256 254 242 239 224 232 242 248 239 211 215 197
11 25 30 25 58 108 122 122 131 142 149 153 164 185 185 172 164 158 172 193 180 175 174 166 167 202 239 247 287 278 287 286 270 264 267 263 255 259 269 248 246 211 201
21 25 34 37 35 35 51 62 66 78 89 102 140 158 184 188 175 173 187 195 164 174 177 175 183 175 196 220 231 240 249 260 266 277 262 257 255 251 269 278 272 228 201
29 32 34 36 29 30 44 44 47 49 32 39 29 13 322 201 194 177 182 189 146 146 165 167 180 199 193 206 257 273 271 256 241 230 239 250 244 240 236 253 276 217 171
34 37 33 36 20 26 17 24 35 34 26 42 45 34 24 3 345 154 180 183 172 189 201 187 155 187 236 143 63 313 283 251 253 241 233 235 231 230 226 236 236 205 181
37 37 38 39 35 32 29 5 34 52 38 29 23 30 21 10 7 351 226 246 213 178 188 184 173 185 236 179 154 82 308 312 267 232 224 231 233 213 218 223 224 213 196
36 31 38 38 42 38 33 32 30 34 27 23 13 13 16 22 22 15 4 358 354 239 243 223 192 191 228 232 218 163 292 252 323 349 251 247 244 223 231 215 216 216 212
32 34 39 40 39 39 38 48 51 57 53 4 1 359 11 20 30 28 21 11 358 347 280 258 228 221 165 236 220 243 228 171 282 313 312 278 250 249 231 233 222 218 211
35 32 31 46 48 42 44 49 59 59 40 15 26 20 11 13 23 22 18 14 10 357 336 318 288 226 214 245 201 219 225 224 220 224 284 295 305 246 239 228 225 220 217
32 43 40 43 41 37 47 46 50 48 41 40 29 26 16 3 6 13 5 3 359 358 350 324 298 278 263 249 240 225 226 233 217 230 252 265 249 257 236 228 222 224 221